Location: Unspecified
(48.2082°N, 0.0000°E)
Time: 03:47:25
(UTC+00:00)

Tiros 1 despin weight - Pass Details

Date: 29 June 2019
Orbit: 594 x 642 km, 48.2° (Epoch: 17 July)

Event Time Altitude Azimuth Distance (km) Brightness Sun altitude
Rises 23:57:50 0° 275° (W) 2,856 ? -18.5°
Reaches altitude 10° 00:00:08 10° 276° (W) 1,946 ? -18.5°
Maximum altitude 00:04:36 87° 187° (S) 603 ? -18.5°
Drops below altitude 10° 00:09:02 10° 99° (E) 1,927 ? -18.5°
Sets 00:11:18 0° 99° (E) 2,826 ? -18.5°
